Time,TemperatureF,DewpointF,PressureIn,WindDirection,WindDirectionDegrees,WindSpeedMPH,WindSpeedGustMPH,Humidity,HourlyPrecipIn,Conditions,Clouds,dailyrainin,SoftwareType,DateUTC
2013-12-10 00:13:00,28.8,27.0,29.85,NNE,32,1.0,8.0,94,0.00,,,0.00,weatherlink.com 1.10,2013-12-10 05:13:00,
2013-12-10 00:28:00,28.7,27.0,29.84,NNW,329,2.0,12.0,93,0.00,,,0.00,weatherlink.com 1.10,2013-12-10 05:28:00,
2013-12-10 00:43:00,28.5,27.0,29.84,WNW,301,1.0,6.0,93,0.00,,,0.00,weatherlink.com 1.10,2013-12-10 05:43:00,
2013-12-10 00:58:00,28.5,27.0,29.84,West,269,0.0,11.0,93,0.00,,,0.00,weatherlink.com 1.10,2013-12-10 05:58:00,
2013-12-10 01:13:00,28.5,27.0,29.84,NNE,15,0.0,8.0,93,0.00,,,0.00,weatherlink.com 1.10,2013-12-10 06:13:00,
2013-12-10 01:28:00,28.5,27.0,29.84,NNE,28,2.0,13.0,93,0.00,,,0.00,weatherlink.com 1.10,2013-12-10 06:28:00,
2013-12-10 01:43:00,28.5,27.0,29.84,NNE,24,3.0,10.0,92,0.00,,,0.00,weatherlink.com 1.10,2013-12-10 06:43:00,
2013-12-10 01:58:00,28.4,26.0,29.83,NNE,15,9.0,15.0,90,0.00,,,0.00,weatherlink.com 1.10,2013-12-10 06:58:00,
2013-12-10 02:13:00,28.3,26.0,29.84,NNE,17,2.0,16.0,89,0.00,,,0.00,weatherlink.com 1.10,2013-12-10 07:13:00,
2013-12-10 02:28:00,28.1,25.0,29.84,NNE,13,5.0,14.0,88,0.00,,,0.00,weatherlink.com 1.10,2013-12-10 07:28:00,
2013-12-10 02:43:00,28.0,25.0,29.84,North,360,4.0,15.0,87,0.00,,,0.00,weatherlink.com 1.10,2013-12-10 07:43:00,
2013-12-10 02:58:00,27.9,25.0,29.83,NNW,329,2.0,10.0,87,0.00,,,0.00,weatherlink.com 1.10,2013-12-10 07:58:00,
2013-12-10 03:13:00,27.9,24.0,29.82,NNW,334,3.0,14.0,86,0.00,,,0.00,weatherlink.com 1.10,2013-12-10 08:13:00,
2013-12-10 03:28:00,27.8,24.0,29.82,NNW,347,9.0,15.0,85,0.00,,,0.00,weatherlink.com 1.10,2013-12-10 08:28:00,
2013-12-10 03:43:00,27.7,23.0,29.81,East,81,6.0,15.0,82,0.00,,,0.00,weatherlink.com 1.10,2013-12-10 08:43:00,
2013-12-10 03:58:00,27.6,22.0,29.81,North,350,5.0,14.0,80,0.00,,,0.00,weatherlink.com 1.10,2013-12-10 08:58:00,
2013-12-10 04:13:00,27.4,22.0,29.82,NNE,17,2.0,17.0,79,0.00,,,0.00,weatherlink.com 1.10,2013-12-10 09:13:00,
2013-12-10 04:28:00,27.3,21.0,29.82,NW,309,7.0,13.0,78,0.00,,,0.00,weatherlink.com 1.10,2013-12-10 09:28:00,
2013-12-10 04:43:00,27.1,21.0,29.82,North,5,4.0,10.0,78,0.00,,,0.00,weatherlink.com 1.10,2013-12-10 09:43:00,
2013-12-10 04:58:00,26.9,22.0,29.82,North,355,2.0,8.0,80,0.00,,,0.00,weatherlink.com 1.10,2013-12-10 09:58:00,
2013-12-10 05:13:00,26.7,21.0,29.83,NW,317,7.0,14.0,80,0.00,,,0.00,weatherlink.com 1.10,2013-12-10 10:13:00,
2013-12-10 05:28:00,26.6,22.0,29.82,NNE,17,4.0,12.0,81,0.00,,,0.00,weatherlink.com 1.10,2013-12-10 10:28:00,
2013-12-10 05:43:00,26.4,21.0,29.84,NNW,337,4.0,12.0,80,0.00,,,0.00,weatherlink.com 1.10,2013-12-10 10:43:00,
2013-12-10 05:58:00,26.2,21.0,29.84,NNE,32,0.0,11.0,80,0.00,,,0.00,weatherlink.com 1.10,2013-12-10 10:58:00,
2013-12-10 06:13:00,26.0,20.0,29.84,NW,319,5.0,19.0,77,0.00,,,0.00,weatherlink.com 1.10,2013-12-10 11:13:00,
2013-12-10 06:28:00,25.8,19.0,29.83,NW,313,1.0,16.0,74,0.00,,,0.00,weatherlink.com 1.10,2013-12-10 11:28:00,
2013-12-10 06:43:00,25.6,18.0,29.84,North,350,6.0,14.0,73,0.00,,,0.00,weatherlink.com 1.10,2013-12-10 11:43:00,
2013-12-10 06:58:00,25.4,18.0,29.82,North,350,8.0,13.0,73,0.00,,,0.00,weatherlink.com 1.10,2013-12-10 11:58:00,
2013-12-10 07:13:00,25.3,18.0,29.82,NW,315,5.0,24.0,75,0.00,,,0.00,weatherlink.com 1.10,2013-12-10 12:13:00,
2013-12-10 07:28:00,24.6,20.0,29.83,North,5,6.0,15.0,82,0.00,,,0.00,weatherlink.com 1.10,2013-12-10 12:28:00,
2013-12-10 07:43:00,23.9,21.0,29.83,NNW,342,7.0,12.0,88,0.00,,,0.00,weatherlink.com 1.10,2013-12-10 12:43:00,
2013-12-10 07:58:00,23.3,21.0,29.84,NNW,346,6.0,15.0,89,0.00,,,0.00,weatherlink.com 1.10,2013-12-10 12:58:00,
2013-12-10 08:14:00,22.9,20.0,29.84,NNE,22,5.0,17.0,87,0.00,,,0.00,weatherlink.com 1.10,2013-12-10 13:14:00,
2013-12-10 08:29:00,22.7,19.0,29.84,NNE,26,9.0,15.0,84,0.00,,,0.00,weatherlink.com 1.10,2013-12-10 13:29:00,
2013-12-10 08:44:00,22.5,18.0,29.84,NNE,25,4.0,15.0,84,0.00,,,0.00,weatherlink.com 1.10,2013-12-10 13:44:00,
2013-12-10 08:59:00,22.5,17.0,29.84,NW,311,3.0,16.0,80,0.00,,,0.00,weatherlink.com 1.10,2013-12-10 13:59:00,
2013-12-10 09:14:00,22.4,17.0,29.83,North,5,3.0,15.0,78,0.00,,,0.00,weatherlink.com 1.10,2013-12-10 14:14:00,
2013-12-10 09:29:00,22.2,16.0,29.83,North,11,3.0,13.0,76,0.00,,,0.00,weatherlink.com 1.10,2013-12-10 14:29:00,
2013-12-10 09:44:00,22.1,15.0,29.84,North,5,2.0,16.0,75,0.00,,,0.00,weatherlink.com 1.10,2013-12-10 14:44:00,
2013-12-10 09:59:00,21.9,14.0,29.84,NNE,26,8.0,21.0,71,0.00,,,0.00,weatherlink.com 1.10,2013-12-10 14:59:00,
2013-12-10 10:14:00,21.8,14.0,29.82,NW,319,0.0,13.0,71,0.00,,,0.00,weatherlink.com 1.10,2013-12-10 15:14:00,
2013-12-10 10:29:00,21.4,12.0,29.83,NNW,327,8.0,15.0,68,0.00,,,0.00,weatherlink.com 1.10,2013-12-10 15:29:00,
2013-12-10 10:44:00,21.1,12.0,29.82,NNW,336,2.0,13.0,67,0.00,,,0.00,weatherlink.com 1.10,2013-12-10 15:44:00,
2013-12-10 10:59:00,21.1,11.0,29.81,NNW,334,10.0,15.0,65,0.00,,,0.00,weatherlink.com 1.10,2013-12-10 15:59:00,
2013-12-10 11:14:00,21.1,11.0,29.79,NNE,26,5.0,14.0,66,0.00,,,0.00,weatherlink.com 1.10,2013-12-10 16:14:00,
2013-12-10 11:29:00,20.8,11.0,29.78,North,355,7.0,16.0,67,0.00,,,0.00,weatherlink.com 1.10,2013-12-10 16:29:00,
2013-12-10 11:44:00,20.5,11.0,29.78,North,360,2.0,10.0,68,0.00,,,0.00,weatherlink.com 1.10,2013-12-10 16:44:00,
2013-12-10 11:59:00,20.2,12.0,29.77,NNE,13,5.0,9.0,70,0.00,,,0.00,weatherlink.com 1.10,2013-12-10 16:59:00,
2013-12-10 12:14:00,20.1,12.0,29.76,NNW,342,3.0,11.0,71,0.00,,,0.00,weatherlink.com 1.10,2013-12-10 17:14:00,
2013-12-10 12:29:00,19.9,12.0,29.75,NNW,338,4.0,11.0,72,0.00,,,0.00,weatherlink.com 1.10,2013-12-10 17:29:00,
2013-12-10 12:44:00,19.7,12.0,29.75,NW,313,5.0,12.0,73,0.00,,,0.00,weatherlink.com 1.10,2013-12-10 17:44:00,
2013-12-10 12:59:00,19.7,13.0,29.74,North,5,1.0,13.0,74,0.00,,,0.00,weatherlink.com 1.10,2013-12-10 17:59:00,
2013-12-10 13:14:00,19.7,12.0,29.74,NNW,329,8.0,13.0,72,0.00,,,0.00,weatherlink.com 1.10,2013-12-10 18:14:00,
2013-12-10 13:29:00,19.4,12.0,29.73,NNW,340,3.0,9.0,73,0.00,,,0.00,weatherlink.com 1.10,2013-12-10 18:29:00,
2013-12-10 13:44:00,19.6,12.0,29.72,North,355,3.0,13.0,73,0.00,,,0.00,weatherlink.com 1.10,2013-12-10 18:44:00,
2013-12-10 13:59:00,19.2,12.0,29.72,NW,323,7.0,12.0,74,0.00,,,0.00,weatherlink.com 1.10,2013-12-10 18:59:00,
2013-12-10 14:14:00,18.6,12.0,29.73,NNW,348,3.0,16.0,75,0.00,,,0.00,weatherlink.com 1.10,2013-12-10 19:14:00,
2013-12-10 14:29:00,18.4,12.0,29.73,North,355,3.0,13.0,75,0.00,,,0.00,weatherlink.com 1.10,2013-12-10 19:29:00,
2013-12-10 14:44:00,18.2,12.0,29.73,North,5,8.0,14.0,76,0.00,,,0.00,weatherlink.com 1.10,2013-12-10 19:44:00,
2013-12-10 14:59:00,17.9,12.0,29.73,NNW,346,7.0,12.0,76,0.00,,,0.00,weatherlink.com 1.10,2013-12-10 19:59:00,
2013-12-10 15:15:00,17.4,11.0,29.72,North,360,7.0,13.0,76,0.00,,,0.00,weatherlink.com 1.10,2013-12-10 20:15:00,
2013-12-10 15:30:00,17.0,11.0,29.73,NE,38,3.0,11.0,77,0.00,,,0.00,weatherlink.com 1.10,2013-12-10 20:30:00,
2013-12-10 15:45:00,16.6,11.0,29.73,North,355,9.0,11.0,78,0.00,,,0.00,weatherlink.com 1.10,2013-12-10 20:45:00,
2013-12-10 16:00:00,16.4,11.0,29.74,North,355,3.0,8.0,79,0.00,,,0.00,weatherlink.com 1.10,2013-12-10 21:00:00,
2013-12-10 16:15:00,16.1,11.0,29.74,North,355,5.0,11.0,80,0.00,,,0.00,weatherlink.com 1.10,2013-12-10 21:15:00,
2013-12-10 16:30:00,15.8,11.0,29.75,North,5,3.0,7.0,81,0.00,,,0.00,weatherlink.com 1.10,2013-12-10 21:30:00,
2013-12-10 16:45:00,15.8,11.0,29.75,NNW,333,2.0,11.0,81,0.00,,,0.00,weatherlink.com 1.10,2013-12-10 21:45:00,
2013-12-10 17:00:00,15.5,11.0,29.74,NNE,13,4.0,10.0,82,0.00,,,0.00,weatherlink.com 1.10,2013-12-10 22:00:00,
2013-12-10 17:15:00,15.3,11.0,29.75,NNW,346,6.0,12.0,82,0.00,,,0.00,weatherlink.com 1.10,2013-12-10 22:15:00,
2013-12-10 17:30:00,15.0,11.0,29.76,North,5,2.0,14.0,83,0.00,,,0.00,weatherlink.com 1.10,2013-12-10 22:30:00,
2013-12-10 17:45:00,14.7,11.0,29.77,North,349,4.0,13.0,85,0.00,,,0.00,weatherlink.com 1.10,2013-12-10 22:45:00,
2013-12-10 18:00:00,14.4,11.0,29.77,North,11,8.0,12.0,87,0.00,,,0.00,weatherlink.com 1.10,2013-12-10 23:00:00,
2013-12-10 18:15:00,14.2,11.0,29.77,NNE,16,4.0,13.0,87,0.00,,,0.00,weatherlink.com 1.10,2013-12-10 23:15:00,
2013-12-10 18:30:00,14.1,11.0,29.77,North,5,10.0,11.0,87,0.00,,,0.00,weatherlink.com 1.10,2013-12-10 23:30:00,
2013-12-10 18:45:00,14.0,11.0,29.77,NNW,330,8.0,12.0,86,0.00,,,0.00,weatherlink.com 1.10,2013-12-10 23:45:00,
2013-12-10 19:00:00,13.8,10.0,29.78,NNW,341,6.0,10.0,86,0.00,,,0.00,weatherlink.com 1.10,2013-12-11 00:00:00,
2013-12-10 19:15:00,13.5,10.0,29.78,NNW,342,10.0,12.0,86,0.00,,,0.00,weatherlink.com 1.10,2013-12-11 00:15:00,
2013-12-10 19:30:00,13.3,10.0,29.79,NNE,15,1.0,13.0,87,0.00,,,0.00,weatherlink.com 1.10,2013-12-11 00:30:00,
2013-12-10 19:45:00,13.1,10.0,29.78,NNE,13,5.0,12.0,87,0.00,,,0.00,weatherlink.com 1.10,2013-12-11 00:45:00,
2013-12-10 20:00:00,12.8,10.0,29.79,North,5,3.0,10.0,87,0.00,,,0.00,weatherlink.com 1.10,2013-12-11 01:00:00,
2013-12-10 20:15:00,12.6,9.0,29.78,NNW,343,6.0,11.0,86,0.00,,,0.00,weatherlink.com 1.10,2013-12-11 01:15:00,
2013-12-10 20:30:00,12.4,9.0,29.78,North,355,3.0,13.0,85,0.00,,,0.00,weatherlink.com 1.10,2013-12-11 01:30:00,
2013-12-10 20:45:00,12.3,9.0,29.79,NNW,331,7.0,14.0,85,0.00,,,0.00,weatherlink.com 1.10,2013-12-11 01:45:00,
2013-12-10 21:00:00,12.2,8.0,29.79,North,355,5.0,13.0,82,0.00,,,0.00,weatherlink.com 1.10,2013-12-11 02:00:00,
2013-12-10 21:15:00,12.2,8.0,29.80,North,355,5.0,14.0,83,0.00,,,0.00,weatherlink.com 1.10,2013-12-11 02:15:00,
2013-12-10 21:30:00,12.1,9.0,29.80,NW,315,5.0,15.0,85,0.00,,,0.00,weatherlink.com 1.10,2013-12-11 02:30:00,
2013-12-10 21:45:00,11.9,9.0,29.81,NNE,20,6.0,11.0,87,0.00,,,0.00,weatherlink.com 1.10,2013-12-11 02:45:00,
2013-12-10 22:00:00,11.9,9.0,29.81,NNE,23,6.0,13.0,88,0.00,,,0.00,weatherlink.com 1.10,2013-12-11 03:00:00,
2013-12-10 22:15:00,11.8,9.0,29.82,NNE,15,2.0,14.0,89,0.00,,,0.00,weatherlink.com 1.10,2013-12-11 03:15:00,
2013-12-10 22:30:00,11.8,9.0,29.83,North,350,5.0,10.0,89,0.00,,,0.00,weatherlink.com 1.10,2013-12-11 03:30:00,
2013-12-10 22:45:00,11.9,9.0,29.84,NW,305,6.0,13.0,89,0.00,,,0.00,weatherlink.com 1.10,2013-12-11 03:45:00,
2013-12-10 23:00:00,12.0,9.0,29.84,North,350,3.0,11.0,89,0.00,,,0.00,weatherlink.com 1.10,2013-12-11 04:00:00,
2013-12-10 23:15:00,12.0,9.0,29.84,North,9,4.0,11.0,89,0.00,,,0.00,weatherlink.com 1.10,2013-12-11 04:15:00,
2013-12-10 23:31:00,12.1,10.0,29.85,North,355,3.0,13.0,89,0.00,,,0.00,weatherlink.com 1.10,2013-12-11 04:31:00,
2013-12-10 23:45:00,12.3,10.0,29.86,North,355,2.0,11.0,90,0.00,,,0.00,weatherlink.com 1.10,2013-12-11 04:45:00,